Weather History for KAOO - July, 2013

Change the Weather History Date:

Wednesday, July 24, 2013

  Actual Average Record
Temperature  
Mean Temperature 65 °F 71 °F  
Max Temperature 75 °F 82 °F 94 °F (2001)
Min Temperature 55 °F 60 °F 50 °F (1957)
Degree Days  
Heating Degree Days 0 0  
Month to date heating degree days 0 1  
Since 1 June heating degree days 20 59  
Since 1 July heating degree days 0 1  
Cooling Degree Days 0 6  
Month to date cooling degree days 252 143  
Year to date cooling degree days 454 285  
Since 1 June cooling degree days 380 252  
Growing Degree Days 15 (Base 50)    
Moisture  
Dew Point 56 °F    
Average Humidity 70    
Maximum Humidity 93    
Minimum Humidity 46    
Precipitation  
Precipitation T in 0.10 in 0.72 in (1955)
Month to date precipitation 1.85 2.55  
Year to date precipitation 15.99 20.21  
Sea Level Pressure  
Sea Level Pressure 29.85 in    
Wind  
Wind Speed 7 mph (NNW)    
Max Wind Speed 17 mph    
Max Gust Speed 22 mph    
Visibility 10 miles    
Events      
T = Trace of Precipitation, MM = Missing Value Source: NWS Daily Summary

Daily Weather History Graph

Daily Weather History Graph

Search for Another Location

Airport or City:

Trip Planner

Search our weather history database for the weather conditions in past years. The results will help you decide how hot, cold, wet, or windy it might be!

Date:

Astronomy

Jul. 24, 2013 Rise Set
Actual Time 6:03 AM EDT 8:35 PM EDT
Civil Twilight 5:32 AM EDT 9:06 PM EDT
Nautical Twilight 4:53 AM EDT 9:45 PM EDT
Astronomical Twilight 4:10 AM EDT 10:28 PM EDT
Moon 9:39 PM EDT (7/24) 8:22 AM EDT (7/24)
Length of Visible Light 15h 33m
Length of Day
14h 31m
Waning Gibbous, 95% of the Moon is Illuminated
Jul 24
Waning Gibbous
Jul 29
Last Quarter
Aug 6
New
Aug 14
First Quarter
Aug 20
Full

Hourly Weather History & Observations

Time (EDT) Temp. Dew Point Humidity Pressure Visibility Wind Dir Wind Speed Gust Speed Precip Events Conditions
12:53 AM 66.9 °F 60.1 °F 79% 29.74 in 10.0 mi Calm Calm - N/A   Clear
1:53 AM 64.9 °F 57.9 °F 78% 29.74 in 10.0 mi South 5.8 mph - N/A   Partly Cloudy
2:53 AM 64.9 °F 57.9 °F 78% 29.74 in 10.0 mi WSW 3.5 mph - N/A   Clear
3:53 AM 66.9 °F 57.9 °F 73% 29.73 in 10.0 mi NW 8.1 mph - N/A   Scattered Clouds
4:15 AM 68.0 °F 59.0 °F 73% 29.76 in 10.0 mi WNW 9.2 mph - N/A   Mostly Cloudy
4:23 AM 66.2 °F 60.8 °F 83% 29.76 in 10.0 mi WNW 9.2 mph - N/A   Partly Cloudy
4:53 AM 66.9 °F 61.0 °F 81% 29.73 in 10.0 mi NW 10.4 mph - N/A   Clear
5:19 AM 66.2 °F 60.8 °F 83% 29.78 in 10.0 mi NW 4.6 mph - N/A   Mostly Cloudy
5:53 AM 66.9 °F 62.1 °F 84% 29.76 in 10.0 mi Calm Calm - N/A   Overcast
6:53 AM 66.0 °F 61.0 °F 84% 29.79 in 10.0 mi NNW 10.4 mph 19.6 mph 0.00 in   Overcast
7:06 AM 66.2 °F 60.8 °F 83% 29.82 in 10.0 mi NNW 10.4 mph - N/A   Overcast
7:32 AM 64.4 °F 57.2 °F 77% 29.84 in 10.0 mi NNW 9.2 mph - N/A   Overcast
7:53 AM 64.9 °F 57.0 °F 75% 29.83 in 10.0 mi NNW 8.1 mph - N/A   Overcast
8:53 AM 66.9 °F 55.0 °F 66% 29.85 in 10.0 mi NNW 9.2 mph - N/A   Scattered Clouds
9:44 AM 66.2 °F 53.6 °F 64% 29.89 in 10.0 mi North 11.5 mph - N/A   Mostly Cloudy
9:53 AM 68.0 °F 55.0 °F 63% 29.87 in 10.0 mi NNW 8.1 mph - N/A   Mostly Cloudy
10:11 AM 68.0 °F 53.6 °F 60% 29.89 in 10.0 mi NNE 15.0 mph 19.6 mph N/A   Mostly Cloudy
10:53 AM 68.0 °F 53.1 °F 59% 29.88 in 10.0 mi North 8.1 mph 16.1 mph N/A   Overcast
11:53 AM 71.1 °F 53.1 °F 53% 29.89 in 10.0 mi NNW 8.1 mph 18.4 mph N/A   Scattered Clouds
12:53 PM 72.0 °F 53.1 °F 51% 29.89 in 10.0 mi Variable 3.5 mph - N/A   Mostly Cloudy
1:53 PM 72.0 °F 52.0 °F 49% 29.89 in 10.0 mi North 8.1 mph - N/A   Mostly Cloudy
2:53 PM 73.0 °F 52.0 °F 48% 29.89 in 10.0 mi Variable 6.9 mph - N/A   Mostly Cloudy
3:53 PM 72.0 °F 53.1 °F 51% 29.90 in 10.0 mi North 10.4 mph - N/A   Mostly Cloudy
4:53 PM 72.0 °F 53.1 °F 51% 29.90 in 10.0 mi North 6.9 mph - N/A   Mostly Cloudy
5:53 PM 72.0 °F 52.0 °F 49% 29.91 in 10.0 mi North 8.1 mph - N/A   Scattered Clouds
6:53 PM 70.0 °F 53.1 °F 55% 29.91 in 10.0 mi North 8.1 mph - N/A   Partly Cloudy
7:53 PM 69.1 °F 52.0 °F 54% 29.93 in 10.0 mi North 8.1 mph - N/A   Clear
8:53 PM 64.9 °F 51.1 °F 61% 29.94 in 10.0 mi North 4.6 mph - N/A   Clear
9:53 PM 62.1 °F 52.0 °F 70% 29.97 in 10.0 mi North 5.8 mph - N/A   Clear
10:53 PM 57.9 °F 53.1 °F 84% 29.99 in 10.0 mi Calm Calm - N/A   Clear
11:53 PM 55.9 °F 53.1 °F 90% 30.00 in 10.0 mi Calm Calm - N/A   Clear